Salem, OR (97301)

10:09 PM PST on February 11, 2016 (GMT -0800)
Center & Cordon NE | | Change Station
CLOSE
Current Station
Personal Weather Station
Location: Salem, OR
Elevation: 210 ft
Nearby Weather Stations

Elev 210 ft 44.94 °N, 122.96 °W | Updated 9 seconds ago

Overcast
Overcast
52.6 °F
Feels Like 52.6 °F
N
2.6
Wind Variable Wind from SSW
Gusts 3.5 mph

Today
High -- | Low -- °F
--% Chance of Precip.
Yesterday
High -- | Low -- °F
Precip. -- in
Pressure 30.12 in
Visibility 5.0 miles
Clouds Overcast 400 ft
Dew Point 52 °F
Humidity 96%
Rainfall 0.11 in
Snow Depth Not available.
7:18 AM 5:33 PM
Waxing Crescent, 17% visible
SPECI KSLE 120605Z AUTO 00000KT 5SM BR OVC004 12/11 A3012 RMK AO2 T01170106
Pressure 30.12 in
Visibility 5.0 miles
Clouds Overcast 400 ft
Dew Point 52 °F
Humidity 96%
Rainfall 0.11 in
Snow Depth Not available.
7:18 AM 5:33 PM
Waxing Crescent, 17% visible
SPECI KSLE 120605Z AUTO 00000KT 5SM BR OVC004 12/11 A3012 RMK AO2 T01170106

10-Day Weather Forecast

Almanac

Astronomy

Feb. 11, 2016 Rise Set
Actual Time
Civil Twilight
Nautical Twilight
Astronomical Twilight
Moon
Length of Visible Light
Length of Day
Tomorrow will be .
, % of the Moon is Illuminated

Today's Extremes

State Highs State Lows

Community

WunderPhotos

Upload Photos

1,892,270 photos uploaded!

WunderBlog® & News

Nearby

Air Quality

  Air Quality AQ Index Pollutant
Not available.

Snow Depth

Station Depth Elevation

Earthquake Activity

City Distance Mag. Time & Date
Minimum magnitude displayed is 2.5.

Coastal Water Temperatures

Place Temperature

Stations

Nearby Weather Stations

Station Location Temp. Windchill Dew Point Humidity Wind Precip. Elev Updated Type
                   

Watches & Warnings

There are currently no watches in effect.